• In France
  • List of Countries
  • For 7 days
  • Water Temperature
  • Satellite Maps
  • Weather Map
  • Weather Widgets
  • user-avatar
    Login

    Hourly Weather Florencia

    Today, 14 December, Thursday

    Time Temperature Precipitation Wind Pressure Humidity
    00:00 +25°C° 0.3 mm 1 mps 732 mmHg 95%
    01:00 +24°C° 0 mm 1 mps 733 mmHg 95%
    02:00 +24°C° 0.4 mm 1 mps 732 mmHg 94%
    03:00 +24°C° 0.4 mm 1 mps 732 mmHg 94%
    04:00 +24°C° 0.4 mm 1 mps 732 mmHg 93%
    05:00 +24°C° 0.5 mm 1 mps 733 mmHg 92%
    06:00 +25°C° 0.5 mm 1 mps 733 mmHg 90%
    07:00 +25°C° 0 mm 1 mps 733 mmHg 86%
    08:00 +27°C° 0.2 mm 1 mps 733 mmHg 80%
    09:00 +28°C° 0.2 mm 1 mps 733 mmHg 75%
    10:00 +30°C° 0.2 mm 1 mps 733 mmHg 70%
    11:00 +31°C° 0.3 mm 1 mps 733 mmHg 67%
    12:00 +32°C° 0.3 mm 1 mps 732 mmHg 65%
    13:00 +32°C° 0.3 mm 1 mps 732 mmHg 62%
    14:00 +32°C° 0.3 mm 1 mps 731 mmHg 63%
    15:00 +32°C° 0.3 mm 1 mps 731 mmHg 65%
    16:00 +32°C° 0.3 mm 1 mps 730 mmHg 66%
    17:00 +30°C° 0.4 mm 1 mps 731 mmHg 74%
    18:00 +28°C° 0.4 mm 1 mps 731 mmHg 81%
    19:00 +26°C° 0.4 mm 1 mps 731 mmHg 89%
    20:00 +26°C° 0.1 mm 1 mps 732 mmHg 89%
    21:00 +25°C° 0.1 mm 1 mps 732 mmHg 89%
    22:00 +25°C° 0.1 mm 1 mps 733 mmHg 89%
    23:00 +25°C° 0 mm 1 mps 733 mmHg 88%

    Tomorrow, 15 December, Friday

    Time Temperature Precipitation Wind Pressure Humidity
    00:00 +25°C° 0 mm 1 mps 733 mmHg 88%
    01:00 +24°C° 0 mm 1 mps 733 mmHg 87%
    02:00 +24°C° 0 mm 1 mps 733 mmHg 87%
    03:00 +24°C° 0 mm 1 mps 732 mmHg 86%
    04:00 +24°C° 0 mm 1 mps 732 mmHg 86%
    05:00 +24°C° 0 mm 1 mps 733 mmHg 84%
    06:00 +24°C° 0 mm 1 mps 733 mmHg 82%
    07:00 +25°C° 0 mm 1 mps 733 mmHg 80%
    08:00 +28°C° 0 mm 1 mps 733 mmHg 68%
    09:00 +29°C° 0 mm 0 mps 734 mmHg 56%
    10:00 +32°C° 0 mm 0 mps 734 mmHg 45%
    11:00 +35°C° 0 mm 1 mps 733 mmHg 43%
    12:00 +35°C° 0 mm 1 mps 732 mmHg 41%
    13:00 +36°C° 0 mm 1 mps 731 mmHg 39%
    14:00 +35°C° 0 mm 1 mps 730 mmHg 41%
    15:00 +35°C° 0 mm 1 mps 730 mmHg 44%
    16:00 +34°C° 0 mm 1 mps 729 mmHg 46%
    17:00 +32°C° 0 mm 1 mps 729 mmHg 55%
    18:00 +29°C° 0 mm 1 mps 730 mmHg 65%
    19:00 +27°C° 0 mm 1 mps 730 mmHg 74%
    20:00 +26°C° 0 mm 1 mps 731 mmHg 75%
    21:00 +26°C° 0 mm 1 mps 732 mmHg 76%
    22:00 +25°C° 0 mm 1 mps 732 mmHg 76%
    23:00 +25°C° 0 mm 1 mps 732 mmHg 77%

    Day after tomorrow, 16 December, Saturday

    Time Temperature Precipitation Wind Pressure Humidity
    00:00 +25°C° 0 mm 1 mps 732 mmHg 77%
    01:00 +25°C° 0 mm 1 mps 732 mmHg 77%
    02:00 +24°C° 0 mm 1 mps 732 mmHg 77%
    03:00 +24°C° 0 mm 1 mps 731 mmHg 77%
    04:00 +24°C° 0 mm 1 mps 731 mmHg 77%
    05:00 +25°C° 0 mm 1 mps 732 mmHg 76%
    06:00 +25°C° 0 mm 1 mps 732 mmHg 74%
    07:00 +25°C° 0 mm 1 mps 732 mmHg 73%
    08:00 +28°C° 0 mm 1 mps 733 mmHg 64%
    09:00 +31°C° 0 mm 1 mps 733 mmHg 55%
    10:00 +34°C° 0 mm 1 mps 733 mmHg 46%
    11:00 +34°C° 0 mm 1 mps 732 mmHg 46%
    12:00 +35°C° 0 mm 1 mps 732 mmHg 45%
    13:00 +36°C° 0 mm 2 mps 731 mmHg 45%
    14:00 +35°C° 0.1 mm 1 mps 730 mmHg 48%
    15:00 +34°C° 0.1 mm 1 mps 729 mmHg 52%
    16:00 +34°C° 0.1 mm 1 mps 729 mmHg 55%
    17:00 +32°C° 0.2 mm 1 mps 729 mmHg 63%
    18:00 +30°C° 0.2 mm 1 mps 730 mmHg 70%
    19:00 +26°C° 0.2 mm 0 mps 730 mmHg 78%
    20:00 +25°C° 0.5 mm 0 mps 731 mmHg 80%
    21:00 +27°C° 0.5 mm 1 mps 731 mmHg 83%
    22:00 +26°C° 0.5 mm 1 mps 732 mmHg 85%
    23:00 +26°C° 0.2 mm 1 mps 732 mmHg 86%

    17 December, Sunday

    Time Temperature Precipitation Wind Pressure Humidity
    00:00 +25°C° 0.2 mm 1 mps 731 mmHg 87%
    01:00 +25°C° 0.2 mm 1 mps 731 mmHg 88%
    02:00 +25°C° 0 mm 1 mps 731 mmHg 88%
    03:00 +25°C° 0 mm 1 mps 731 mmHg 88%
    04:00 +24°C° 0 mm 1 mps 730 mmHg 88%
    05:00 +25°C° 0 mm 1 mps 731 mmHg 86%
    06:00 +25°C° 0 mm 1 mps 732 mmHg 84%
    07:00 +25°C° 0 mm 1 mps 732 mmHg 82%
    08:00 +28°C° 0 mm 1 mps 733 mmHg 71%
    09:00 +31°C° 0 mm 1 mps 733 mmHg 60%
    10:00 +34°C° 0 mm 1 mps 733 mmHg 50%
    11:00 +34°C° 0 mm 1 mps 732 mmHg 49%
    12:00 +35°C° 0 mm 1 mps 732 mmHg 48%
    13:00 +35°C° 0 mm 1 mps 731 mmHg 46%
    14:00 +35°C° 0.1 mm 1 mps 730 mmHg 47%
    15:00 +34°C° 0.1 mm 1 mps 729 mmHg 48%
    16:00 +34°C° 0.1 mm 1 mps 728 mmHg 49%
    17:00 +32°C° 0.1 mm 1 mps 729 mmHg 57%
    18:00 +30°C° 0.1 mm 1 mps 730 mmHg 64%
    19:00 +25°C° 0.1 mm 0 mps 730 mmHg 72%
    20:00 +25°C° 0.1 mm 0 mps 731 mmHg 74%
    21:00 +24°C° 0.1 mm 0 mps 732 mmHg 77%
    22:00 +23°C° 0.1 mm 0 mps 732 mmHg 79%
    23:00 +25°C° 0 mm 1 mps 732 mmHg 80%

    18 December, Monday

    Time Temperature Precipitation Wind Pressure Humidity
    00:00 +24°C° 0 mm 1 mps 732 mmHg 81%
    01:00 +24°C° 0 mm 1 mps 732 mmHg 82%
    02:00 +24°C° 0 mm 1 mps 731 mmHg 81%
    03:00 +23°C° 0 mm 1 mps 731 mmHg 80%
    04:00 +23°C° 0 mm 1 mps 731 mmHg 80%
    05:00 +23°C° 0 mm 1 mps 732 mmHg 77%
    06:00 +23°C° 0 mm 1 mps 732 mmHg 74%
    07:00 +24°C° 0 mm 1 mps 733 mmHg 71%
    08:00 +27°C° 0 mm 1 mps 733 mmHg 59%
    09:00 +30°C° 0 mm 1 mps 733 mmHg 47%
    10:00 +34°C° 0 mm 1 mps 733 mmHg 35%
    11:00 +35°C° 0 mm 1 mps 732 mmHg 33%
    12:00 +35°C° 0 mm 1 mps 732 mmHg 32%
    13:00 +37°C° 0 mm 2 mps 731 mmHg 31%
    14:00 +36°C° 0 mm 1 mps 730 mmHg 33%
    15:00 +35°C° 0 mm 1 mps 729 mmHg 36%
    16:00 +34°C° 0 mm 1 mps 729 mmHg 38%
    17:00 +32°C° 0 mm 1 mps 729 mmHg 47%
    18:00 +29°C° 0 mm 1 mps 730 mmHg 57%
    19:00 +26°C° 0 mm 1 mps 731 mmHg 66%
    20:00 +26°C° 0 mm 1 mps 731 mmHg 67%
    21:00 +25°C° 0 mm 1 mps 732 mmHg 67%
    22:00 +25°C° 0 mm 1 mps 733 mmHg 68%
    23:00 +25°C° 0 mm 1 mps 733 mmHg 68%

    19 December, Tuesday

    Time Temperature Precipitation Wind Pressure Humidity
    00:00 +24°C° 0 mm 1 mps 732 mmHg 69%
    01:00 +24°C° 0 mm 1 mps 732 mmHg 69%
    02:00 +24°C° 0 mm 1 mps 732 mmHg 68%
    03:00 +24°C° 0 mm 1 mps 731 mmHg 68%
    04:00 +23°C° 0 mm 1 mps 731 mmHg 67%
    05:00 +24°C° 0 mm 1 mps 732 mmHg 67%
    06:00 +24°C° 0 mm 1 mps 732 mmHg 66%
    07:00 +25°C° 0 mm 1 mps 733 mmHg 65%
    08:00 +28°C° 0 mm 1 mps 733 mmHg 56%
    09:00 +31°C° 0 mm 1 mps 733 mmHg 47%
    10:00 +34°C° 0 mm 1 mps 733 mmHg 38%
    11:00 +35°C° 0 mm 1 mps 732 mmHg 37%
    12:00 +36°C° 0 mm 1 mps 731 mmHg 35%
    13:00 +36°C° 0 mm 1 mps 730 mmHg 34%
    14:00 +36°C° 0 mm 1 mps 730 mmHg 36%
    15:00 +35°C° 0 mm 1 mps 729 mmHg 39%
    16:00 +34°C° 0 mm 1 mps 729 mmHg 42%
    17:00 +32°C° 0 mm 1 mps 729 mmHg 50%
    18:00 +30°C° 0 mm 1 mps 730 mmHg 59%
    19:00 +27°C° 0 mm 1 mps 731 mmHg 68%
    20:00 +27°C° 0 mm 1 mps 731 mmHg 68%
    21:00 +27°C° 0 mm 1 mps 732 mmHg 69%
    22:00 +26°C° 0 mm 1 mps 733 mmHg 69%
    23:00 +26°C° 0 mm 1 mps 733 mmHg 70%
    Show more